IRIDIUM 106 1 41917U 17003A 25305.65011734 -.00000013 00000+0 -11746-4 0 9993 2 41917 86.4026 183.6038 0001574 78.2684 281.8689 14.34217751460592 IRIDIUM 103 1 41918U 17003B 25305.63743118 .00000304 00000+0 10142-3 0 9999 2 41918 86.4023 183.5101 0002320 73.7856 286.3595 14.34216749460616 IRIDIUM 109 1 41919U 17003C 25305.64377486 .00000206 00000+0 66457-4 0 9994 2 41919 86.4023 183.5629 0002157 80.6448 279.4992 14.34217647460582 IRIDIUM 102 1 41920U 17003D 25305.61206263 .00000000 00000+0 -72279-5 0 9990 2 41920 86.4026 183.5045 0002052 87.2853 272.8578 14.34217834460660 IRIDIUM 105 1 41921U 17003E 25305.58280074 .00000388 00000+0 13133-3 0 9999 2 41921 86.3983 152.0237 0002184 82.3216 277.8228 14.34220443462514 IRIDIUM 104 1 41922U 17003F 25305.62474845 .00000034 00000+0 51155-5 0 9992 2 41922 86.4024 183.5385 0002429 82.0944 278.0528 14.34217973460655 IRIDIUM 114 1 41923U 17003G 25305.63109022 .00000315 00000+0 10530-3 0 9998 2 41923 86.4022 183.5200 0002181 79.7717 280.3725 14.34218696460632 IRIDIUM 108 1 41924U 17003H 25305.58961127 .00000102 00000+0 29411-4 0 9998 2 41924 86.3976 151.9134 0002093 91.2838 268.8598 14.34218435462485 IRIDIUM 112 1 41925U 17003J 25305.61840596 .00000023 00000+0 12898-5 0 9993 2 41925 86.4021 183.3779 0002255 84.9958 275.1495 14.34217760460658 IRIDIUM 111 1 41926U 17003K 25305.60572714 .00000352 00000+0 11863-3 0 9991 2 41926 86.4021 183.4487 0002109 82.0907 278.0528 14.34218486460630 IRIDIUM 113 1 42803U 17039A 25305.58568440 .00000050 00000+0 10718-4 0 9997 2 42803 86.3977 57.2922 0002223 92.1586 267.9864 14.34218250438564 IRIDIUM 123 1 42804U 17039B 25305.48762538 .00000083 00000+0 22672-4 0 9999 2 42804 86.3932 88.8266 0001876 85.5850 274.5561 14.34218078437318 IRIDIUM 120 1 42805U 17039C 25305.30026735 .00000374 00000+0 12648-3 0 9997 2 42805 86.3964 57.2232 0001830 99.9903 260.1500 14.34217200438518 IRIDIUM 115 1 42806U 17039D 25305.57475831 .00000754 00000+0 21819-3 0 9994 2 42806 86.4504 57.2061 0001637 85.5075 274.6313 14.43279618441434 IRIDIUM 118 1 42807U 17039E 25305.65887654 .00000052 00000+0 11377-4 0 9994 2 42807 86.3934 88.7541 0002263 90.5166 269.6289 14.34217804437335 IRIDIUM 117 1 42808U 17039F 25305.46858724 .00000138 00000+0 42321-4 0 9998 2 42808 86.3930 88.7935 0001987 86.8208 273.3215 14.34222240437337 IRIDIUM 126 1 42809U 17039G 25305.49396854 .00000447 00000+0 15243-3 0 9998 2 42809 86.3934 88.8306 0002219 87.7261 272.4189 14.34217493437315 IRIDIUM 124 1 42810U 17039H 25305.50857717 .00000325 00000+0 90607-4 0 9995 2 42810 86.4529 25.5376 0002067 91.6567 268.4870 14.43281102442278 IRIDIUM 128 1 42811U 17039J 25305.48472123 .00000157 00000+0 49137-4 0 9992 2 42811 86.3932 120.3684 0001644 89.9406 270.1978 14.34219297437341 IRIDIUM 121 1 42812U 17039K 25305.44322720 .00000223 00000+0 72638-4 0 9992 2 42812 86.3935 88.8779 0001940 94.5841 265.5576 14.34218351437186 IRIDIUM 133 1 42955U 17061A 25305.44665304 .00000152 00000+0 47095-4 0 9993 2 42955 86.3935 120.4965 0002009 88.9950 271.1476 14.34218133422138 IRIDIUM 100 1 42956U 17061B 25305.51007612 .00000043 00000+0 81874-5 0 9997 2 42956 86.3932 120.3939 0002019 85.2599 274.8827 14.34217664422145 IRIDIUM 122 1 42957U 17061C 25305.47836369 .00000017 00000+0 -11702-5 0 9997 2 42957 86.3937 120.4067 0001928 85.7537 274.3879 14.34217680422149 IRIDIUM 129 1 42958U 17061D 25305.50373439 .00000064 00000+0 15716-4 0 9995 2 42958 86.3933 120.4607 0002477 91.4800 268.6679 14.34217762422160 IRIDIUM 119 1 42959U 17061E 25305.47202135 .00000006 00000+0 -48959-5 0 9999 2 42959 86.3940 120.4689 0002154 83.8708 276.2733 14.34217551422176 IRIDIUM 107 1 42960U 17061F 25305.49106036 .00000164 00000+0 51467-4 0 9997 2 42960 86.3935 120.4807 0001979 77.0715 283.0702 14.34216386422189 IRIDIUM 132 1 42961U 17061G 25305.49739044 .00000102 00000+0 29191-4 0 9990 2 42961 86.3934 120.4592 0002021 87.3852 272.7575 14.34217988422187 IRIDIUM 136 1 42962U 17061H 25305.45933566 .00000085 00000+0 23264-4 0 9997 2 42962 86.3936 120.4807 0002133 85.0572 275.0868 14.34217929422194 IRIDIUM 139 1 42963U 17061J 25305.46567778 .00000093 00000+0 26017-4 0 9995 2 42963 86.3937 120.5362 0001925 84.3126 275.8289 14.34218263422207 IRIDIUM 125 1 42964U 17061K 25305.45299349 .00000079 00000+0 21209-4 0 9993 2 42964 86.3938 120.5984 0002261 75.0919 285.0527 14.34218012422211 IRIDIUM 135 1 43070U 17083A 25305.56665592 .00000328 00000+0 11001-3 0 9990 2 43070 86.3971 57.1513 0002044 99.0246 261.1181 14.34217047411528 IRIDIUM 138 1 43071U 17083B 25305.59202813 .00000038 00000+0 66312-5 0 9992 2 43071 86.3986 56.8010 0002462 89.9105 270.2373 14.34217959411514 IRIDIUM 116 1 43072U 17083C 25305.35100611 .00000088 00000+0 24236-4 0 9993 2 43072 86.3973 57.2305 0001868 99.8378 260.3029 14.34218828411518 IRIDIUM 130 1 43073U 17083D 25305.59836719 .00000344 00000+0 11572-3 0 9998 2 43073 86.3992 57.3799 0001828 89.7527 270.3878 14.34213894411496 IRIDIUM 151 1 43074U 17083E 25305.57299958 .00000340 00000+0 11438-3 0 9992 2 43074 86.3973 57.1902 0002028 98.5734 261.5692 14.34217685411512 IRIDIUM 134 1 43075U 17083F 25305.61105376 .00000111 00000+0 32521-4 0 9991 2 43075 86.3978 57.1794 0001901 92.6631 267.4782 14.34218373411483 IRIDIUM 137 1 43076U 17083G 25305.55396457 .00000418 00000+0 14222-3 0 9994 2 43076 86.3974 57.2910 0002029 111.2575 248.8838 14.34216646411541 IRIDIUM 141 1 43077U 17083H 25305.54762927 .00000029 00000+0 32756-5 0 9995 2 43077 86.3971 57.1373 0002215 94.3838 265.7611 14.34217935411540 IRIDIUM 153 1 43078U 17083J 25305.29050262 .00000043 00000+0 84511-5 0 9992 2 43078 86.4008 25.7318 0002430 88.7641 271.3833 14.34218120412616 IRIDIUM 131 1 43079U 17083K 25305.60471217 .00000009 00000+0 -40069-5 0 9998 2 43079 86.3975 57.2846 0002069 95.9102 264.2330 14.34217948411489 IRIDIUM 144 1 43249U 18030A 25305.50615015 .00000004 00000+0 -56638-5 0 9999 2 43249 86.4009 25.5763 0002025 98.0559 262.0867 14.34217816397506 IRIDIUM 149 1 43250U 18030B 25305.51249308 .00000016 00000+0 -14613-5 0 9990 2 43250 86.4008 25.5432 0002076 96.0879 264.0553 14.34217815397524 IRIDIUM 157 1 43251U 18030C 25305.46175262 -.00000005 00000+0 -89143-5 0 9991 2 43251 86.4005 25.6124 0002139 99.6828 260.4610 14.34217658397499 IRIDIUM 140 1 43252U 18030D 25305.62031532 .00000216 00000+0 70224-4 0 9992 2 43252 86.4011 25.5594 0002083 93.7185 266.4250 14.34219294397579 IRIDIUM 145 1 43253U 18030E 25305.46809411 -.00000038 00000+0 -20564-4 0 9990 2 43253 86.4006 25.5957 0001738 96.7472 263.3921 14.34217666397487 IRIDIUM 146 1 43254U 18030F 25305.51883536 .00000354 00000+0 11933-3 0 9995 2 43254 86.4009 25.5876 0001948 98.6178 261.5239 14.34217149397509 IRIDIUM 148 1 43255U 18030G 25305.62665890 .00000136 00000+0 41594-4 0 9994 2 43255 86.4010 25.5820 0002159 100.4185 259.7255 14.34217691397550 IRIDIUM 142 1 43256U 18030H 25305.24610254 .00000101 00000+0 28854-4 0 9993 2 43256 86.4007 25.6385 0001724 100.7194 259.4196 14.34218519397465 IRIDIUM 150 1 43257U 18030J 25305.63300230 -.00000169 00000+0 -67506-4 0 9990 2 43257 86.4011 25.5856 0001939 95.3884 264.7533 14.34217087397548 IRIDIUM 143 1 43258U 18030K 25305.47443704 .00000029 00000+0 32939-5 0 9993 2 43258 86.4015 25.7355 0001850 98.7528 261.3877 14.34217952397458 IRIDIUM 161 1 43478U 18047C 25305.62520981 .00000481 00000+0 13693-3 0 9991 2 43478 86.4544 183.5430 0002279 83.9152 276.2309 14.43279440392316 IRIDIUM 152 1 43479U 18047D 25305.58669236 .00000158 00000+0 49386-4 0 9994 2 43479 86.4017 183.4195 0002215 81.9284 278.2164 14.34218333389864 IRIDIUM 147 1 43480U 18047E 25305.66280406 -.00000020 00000+0 -14173-4 0 9999 2 43480 86.4023 183.3889 0002043 86.4850 273.6580 14.34217553389875 IRIDIUM 110 1 43481U 18047F 25305.59938030 .00000329 00000+0 11029-3 0 9991 2 43481 86.4022 183.5012 0002589 83.9356 276.2135 14.34219814389858 IRIDIUM 162 1 43482U 18047G 25305.61888390 .00000468 00000+0 13325-3 0 9993 2 43482 86.4544 183.4395 0002256 76.9691 283.1762 14.43283866392301 IRIDIUM 160 1 43569U 18061A 25305.05683363 .00000155 00000+0 48453-4 0 9990 2 43569 86.3981 152.1647 0002355 89.6943 270.4523 14.34218739380673 IRIDIUM 166 1 43570U 18061B 25305.50081465 .00000137 00000+0 41790-4 0 9994 2 43570 86.3978 151.9330 0001926 89.7517 270.3900 14.34218453380769 IRIDIUM 158 1 43571U 18061C 25305.32957201 .00000374 00000+0 12633-3 0 9991 2 43571 86.3980 152.0147 0002127 79.7577 280.3859 14.34217843380700 IRIDIUM 165 1 43572U 18061D 25305.49447236 .00000097 00000+0 27698-4 0 9992 2 43572 86.3981 151.9876 0002008 89.9073 270.2353 14.34218256380752 IRIDIUM 155 1 43573U 18061E 25305.52617774 .00000134 00000+0 40614-4 0 9998 2 43573 86.3975 151.8549 0002006 82.0546 278.0877 14.34221231380720 IRIDIUM 154 1 43574U 18061F 25305.57692687 .00000046 00000+0 92191-5 0 9990 2 43574 86.3981 151.9558 0002095 87.1208 273.0228 14.34217876380789 IRIDIUM 163 1 43575U 18061G 25305.55789908 .00000072 00000+0 18810-4 0 9996 2 43575 86.3978 151.8865 0002257 84.5343 275.6111 14.34217966380753 IRIDIUM 156 1 43576U 18061H 25305.53252713 .00000109 00000+0 31966-4 0 9992 2 43576 86.3977 151.9041 0001835 83.0399 277.1006 14.34218338380749 IRIDIUM 164 1 43577U 18061J 25305.51350058 .00000292 00000+0 97145-4 0 9996 2 43577 86.3980 151.9486 0001986 91.0766 269.0658 14.34217945380781 IRIDIUM 159 1 43578U 18061K 25305.55155622 .00000074 00000+0 19273-4 0 9995 2 43578 86.3979 151.8744 0002253 88.8824 271.2630 14.34218111380751 IRIDIUM 180 1 43922U 19002A 25305.48128230 .00000130 00000+0 39519-4 0 9999 2 43922 86.3929 88.7912 0002281 89.9739 270.1718 14.34217147356354 IRIDIUM 176 1 43923U 19002B 25305.46717005 .00001458 00000+0 22732-3 0 9994 2 43923 86.6059 88.7740 0001944 77.3759 282.7675 14.72256287365743 IRIDIUM 168 1 43924U 19002C 25305.47494130 .00000320 00000+0 10735-3 0 9994 2 43924 86.3932 88.8649 0002196 91.8697 268.2751 14.34217509356333 IRIDIUM 173 1 43925U 19002D 25305.46225564 .00000167 00000+0 52636-4 0 9993 2 43925 86.3930 88.7682 0002172 87.6528 272.4916 14.34218219356315 IRIDIUM 169 1 43926U 19002E 25305.45709270 .00000203 00000+0 59764-4 0 9994 2 43926 86.4190 120.4205 0002106 55.8922 304.2476 14.38606672357484 IRIDIUM 172 1 43927U 19002F 25305.45591361 .00000034 00000+0 49145-5 0 9990 2 43927 86.3934 88.7784 0002349 93.0294 267.1171 14.34217875356323 IRIDIUM 175 1 43928U 19002G 25305.32642763 .00000949 00000+0 14659-3 0 9995 2 43928 86.1530 33.5676 0001737 112.2268 247.9133 14.72244268365712 IRIDIUM 171 1 43929U 19002H 25305.64619016 .00000115 00000+0 33894-4 0 9994 2 43929 86.3940 88.9801 0001796 96.2137 263.9264 14.34218210356343 IRIDIUM 170 1 43930U 19002J 25305.47335119 .00001526 00000+0 23808-3 0 9996 2 43930 86.6055 88.7752 0002302 89.8887 270.2594 14.72251790365756 IRIDIUM 167 1 43931U 19002K 25305.63984742 .00000049 00000+0 10575-4 0 9994 2 43931 86.3931 88.7218 0001640 91.2950 268.8433 14.34217828356348 IRIDIUM 181 1 56726U 23068S 25305.49813795 .00000488 00000+0 13904-3 0 9995 2 56726 86.4519 151.9501 0002015 102.5760 257.5667 14.43322450129594 IRIDIUM 177 1 56727U 23068T 25305.64037375 .00001583 00000+0 20495-3 0 9995 2 56727 86.1951 76.8474 0002161 85.3295 274.8173 14.80220453132701 IRIDIUM 174 1 56728U 23068U 25305.66489369 .00001660 00000+0 25941-3 0 9999 2 56728 86.6063 88.8192 0002643 84.9348 275.2170 14.72248792132541 IRIDIUM 178 1 56729U 23068V 25305.49426647 .00000667 00000+0 84364-4 0 9992 2 56729 86.6506 120.5358 0001961 87.5835 272.5612 14.80230738132680 IRIDIUM 179 1 56730U 23068W 25305.48888970 .00000855 00000+0 10904-3 0 9991 2 56730 86.6759 128.8344 0001697 92.2062 267.9354 14.80232345132686